Location: Nantong Television Tower
(32.0188°N, 120.8512°E)
Time: 23:16:38
(UTC+08:00)

Vanguard 3 - Visible Passes

Search period start: 05 May 2015 00:00
Search period end: 15 May 2015 00:00
Orbit: 510 x 3270 km, 33.3° (Epoch: 04 May)

Date Brightness Start Highest point End Pass type
(mag) Time Alt. Az. Time Alt. Az. Time Alt. Az.
05 May 9.6 19:47:49 10° WSW 19:53:24 24° SSW 20:01:16 11° SSE visible
06 May 10.4 20:50:40 10° SW 20:53:47 12° SSW 20:56:50 10° S visible
07 May 9.8 19:35:39 10° WSW 19:40:01 17° SSW 19:45:40 10° SSE visible
09 May 10.0 19:24:44 10° SW 19:26:42 11° SSW 19:28:35 10° S visible
